Location: Amsterdam
(30.7274°N, 84.4357°W)
Time: 19:07:17
(UTC+00:00)

Tiros 1 - Pass Details

Date: 17 February 2026
Orbit: 618 x 649 km, 48.4° (Epoch: 10 March)

Event Time Altitude Azimuth Distance (km) Brightness Sun altitude
Rises 12:45:51 0° 212° (SSW) 2,915 10.4 5.3°
Reaches altitude 10° 12:48:15 10° 206° (SSW) 2,005 9.6 5.8°
Maximum altitude 12:52:38 45° 134° (SE) 857 8.6 6.7°
Drops below altitude 10° 12:57:01 10° 62° (ENE) 1,994 10.4 7.5°
Sets 12:59:23 0° 56° (NE) 2,898 11.1 8.0°
